Regional Weather Roundup
Issued by NWS

Home | Current Version | Previous Version | Text Only | Print | Product List | Glossary Off
Versions: 1 2 3 4 5 6 7 8 9 10 11 12 13 14 15 16 17 18 19 20 21 22 23 24 25 26 27 28 29 30 31 32 33 34 35 36 37 38 39 40 41 42 43 44 45 46 47 48 49 50

787
ASUS43 KIND 271059
RWRIN

WEATHER ROUNDUP FOR INDIANA
NATIONAL WEATHER SERVICE INDIANAPOLIS IN
600 AM EST MON FEB 27 2017

NOTE: "FAIR" INDICATES FEW OR NO CLOUDS BELOW 12,000 FEET WITH NO
SIGNIFICANT WEATHER AND/OR OBSTRUCTIONS TO VISIBILITY.

* - STATION DOES NOT REPORT WEATHER SUCH AS PRECIPITATION OR FOG.

+ - STATION NOT QUALITY CONTROLLED BY THE NATIONAL WEATHER SERVICE.
    USE DATA WITH CAUTION...ESPECIALLY DEWPOINT AND RELATIVE
    HUMIDITY OBSERVATIONS.

INZ001>003-010>013-019-020-271200-
NORTHWEST INDIANA

CITY           SKY/WX    TMP DP  RH WIND       PRES   REMARKS
GARY /AIRPORT/ PTCLDY    34  25  69 S5        30.13S WCI  30
KNOX *+        CLEAR     28   7  40 S7        30.16R WCI  21

$$

LMZ046-743>745-271200-
SOUTHERN LAKE MICHIGAN

STATION/POSITION TIME  TEMP    WIND        PRES    WAVE
                       AIR SEA DIR/SP/G            HT
                 (UTC) (F)     (DEG/KT/KT) (MB)    (FT)
BURNS HARBOR     1030   36     180/  7/ 12 1020.7S
MICHIGAN CITY    1030   36     180/  9/ 11   N/A

$$

INZ004-005-014>016-021>024-271200-
NORTH CENTRAL INDIANA

CITY           SKY/WX    TMP DP  RH WIND       PRES   REMARKS
GOSHEN         CLEAR     30  21  69 SW7       30.16R WCI  23
SOUTH BEND     PTCLDY    30  23  75 SW7       30.15R WCI  23

$$

INZ006>009-017-018-025>027-271200-
NORTHEAST INDIANA

CITY           SKY/WX    TMP DP  RH WIND       PRES   REMARKS
ANGOLA *+      PTCLDY    32  25  74 SW3       30.15R
FORT WAYNE     MOCLDY    31  22  69 SW7       30.18R WCI  24
KENDALLVILLE + CLOUDY    31  23  73 SW6       30.16R WCI  25

$$

INZ028-029-035-036-043>045-051>053-271200-
WEST CENTRAL INDIANA

CITY           SKY/WX    TMP DP  RH WIND       PRES   REMARKS
LAFAYETTE      CLOUDY    30  26  85 NE3       30.16S
TERRE HAUTE    CLOUDY    41  33  73 SE6       30.16S

$$

INZ030>032-037>040-046>048-054>057-064-065-271200-
CENTRAL INDIANA

CITY           SKY/WX    TMP DP  RH WIND       PRES   REMARKS
GREENWOOD *+   CLOUDY    42  33  70 SE3       30.20R
INDIANAPOLIS   CLOUDY    40  33  76 SE6       30.19R
-EAGLE CREEK   CLOUDY    41  33  73 CALM      30.18R
KOKOMO +       CLOUDY    34  26  72 S3        30.18S
MT COMFORT *+  CLOUDY    39  32  75 CALM      30.19S
SHELBYVILLE    CLOUDY    41  27  57 SE7       30.19R

$$

INZ033-034-041-042-049-050-058-059-271200-
EAST CENTRAL INDIANA

CITY           SKY/WX    TMP DP  RH WIND       PRES   REMARKS
MUNCIE         CLOUDY    42  32  67 SW3       30.18S

$$

INZ060-061-067>069-081>083-085>088-271200-
SOUTHWEST INDIANA

CITY           SKY/WX    TMP DP  RH WIND       PRES   REMARKS
EVANSVILLE     CLOUDY    44  39  82 CALM      30.18S
HUNTINGBURG *+ CLOUDY    43  37  81 S5        30.20R

$$

INZ062-063-066-070>080-084-089>092-271200-
SOUTH CENTRAL AND SOUTHEAST INDIANA

CITY           SKY/WX    TMP DP  RH WIND       PRES   REMARKS
BLOOMINGTON    CLOUDY    42  28  57 SE6       30.18R
MADISON *+     CLOUDY    43  32  65 SW6       30.24R
SEYMOUR +      DRIZZLE   41  30  65 S5        30.22R

$$





USA.gov is the U.S. government's official web portal to all federal, state and local government web resources and services.